Location: Elstree
(51.6403°N, 0.2969°W)
Time: 13:30:54
(UTC+00:00)

Cosmos 1354 Rocket - Pass Details

Date: 23 June 2021
Orbit: 764 x 783 km, 74.0° (Epoch: 25 July)

Event Time Altitude Azimuth Distance (km) Brightness Sun altitude
Rises 23:56:47 0° 321° (NW) 3,284 8.2 -14.9°
Reaches altitude 10° 00:00:31 10° 294° (WNW) 2,349 6.8 -14.9°
Maximum altitude 00:02:50 13° 268° (W) 2,140 6.3 -14.9°
Drops below altitude 10° 00:05:10 10° 242° (WSW) 2,339 6.2 -14.9°
Enters shadow 00:06:13 - 233° (SW) 2,546 6.3 -14.9°
